Regional Weather Roundup
Issued by NWS

Home | Current Version | Previous Version | Graphics & Text | Print | Product List | Glossary On
Versions: 1 2 3 4 5 6 7 8 9 10 11 12 13 14 15 16 17 18 19 20 21 22 23 24 25 26 27 28 29 30 31 32 33 34 35 36 37 38 39 40 41 42 43 44 45 46 47 48 49 50
884
ASUS45 KABQ 241401
RWRNM
NEW MEXICO REGIONAL WEATHER ROUNDUP
NATIONAL WEATHER SERVICE ALBUQUERQUE NM
700 AM MST TUE JAN 24 2017

NOTE: "FAIR" MEANS FEW OR NO CLOUDS BELOW 12,000 FEET AGL WITH NO
       SIGNIFICANT WEATHER OR OBSTRUCTIONS TO VISION.

      THIS PRODUCT IS RELEASED AS TWO VERSIONS.  ONE VERSION NEAR
      THE TOP OF THE HOUR CONTAINING PRELIMINARY DATA FROM ALBUQUERQUE
      AND OTHER STATIONS.  A FINAL VERSION WITH ADDITIONAL DATA IS
      ISSUED ABOUT 10 MINUTES AFTER THE HOUR.

NMZ501-503-504-510>518-241500-
NORTHWEST PLATEAU/NORTHCENTRAL MOUNTAINS

CITY           SKY/WX    TMP DP  RH WIND       PRES   REMARKS
FARMINGTON     FOG       26  25  96 NW6       29.64R VSB 1/4 WCI  19
LOS ALAMOS     CLOUDY    29  21  71 SW13G23   29.62S WCI  19
SANTA FE       CLOUDY    30  26  85 W16       29.64S WCI  19
TAOS           CLOUDY    27  16  63 W7        29.60R WCI  19
ANGEL FIRE     LGT SNOW  23  18  81 W10G17    29.56F WCI  12

$$
NMZ402-403-502-505>509-241500-
WESTCENTRAL MOUNTAINS/SOUTHWEST MOUNTAINS

CITY           SKY/WX    TMP DP  RH WIND       PRES   REMARKS
GALLUP         CLOUDY    26  21  81 SW22G30   29.70R WCI  12
GRANTS         MOCLDY    27  20  75 W16G29    29.72R WCI  14
SILVER CITY    FAIR      32  29  90 W15       29.80R WCI  21

$$
NMZ407-409-411-412-241500-
SOUTHERN DESERTS

CITY           SKY/WX    TMP DP  RH WIND       PRES   REMARKS
DEMING         FAIR      38  31  76 W10       29.83R WCI  31
LAS CRUCES     FAIR      40  32  73 W13       29.81R WCI  33
ALAMOGORDO     CLOUDY    46  28  49 SW13G18   29.79R
T OR C         FAIR      39  28  64 SW9       29.73R WCI  33

$$
NMZ519>523-241500-
CENTRAL VALLEYS/CENTRAL HIGHLANDS

CITY           SKY/WX    TMP DP  RH WIND       PRES   REMARKS
ALBUQUERQUE    FAIR      36  27  69 SW8       29.70R WCI  30
DOUBLE EAGLE   PTCLDY    30  27  86 SW17      29.68R WCI  18
MORIARTY ARPT  CLOUDY    32  26  77 W12       29.69R WCI  23
CLINES CORNERS CLOUDY    27  25  92 W23       29.64R WCI  12
BELEN          MOCLDY    35  24  65 W12       29.72R WCI  26
SOCORRO        CLOUDY    38  31  77 S5        29.70R WCI  34

$$
NMZ524>526-539-540-241500-
SOUTHCENTRAL MOUNTAINS

CITY           SKY/WX    TMP DP  RH WIND       PRES   REMARKS
RUIDOSO        NOT AVBL

$$
NMZ527>531-241500-
NORTHEAST HIGHLANDS/NORTHEAST PLAINS

CITY           SKY/WX    TMP DP  RH WIND       PRES   REMARKS
LAS VEGAS      CLOUDY    28  24  85 S12       29.59R WCI  18
RATON          MOCLDY    30  21  69 SW6       29.53R WCI  24
CLAYTON        FAIR      34  31  88 W12       29.52R WCI  25

$$
NMZ532>537-241500-
EASTCENTRAL PLAINS

CITY           SKY/WX    TMP DP  RH WIND       PRES   REMARKS
TUCUMCARI      FAIR      40  31  70 W16       29.58R WCI  31
CANNON AFB     FAIR      40  31  72 NW12      29.63R WCI  32
CLOVIS AIRPORT FAIR      41  27  56 W13       29.62R

$$
NMZ028-029-538-241500-
SOUTHEAST PLAINS

CITY           SKY/WX    TMP DP  RH WIND       PRES   REMARKS
ROSWELL        FAIR      46  31  55 W10       29.67R
ARTESIA        FAIR      52  32  46 W18G25    29.68R
CARLSBAD       FAIR      56  28  34 W26G33    29.65R
HOBBS          CLEAR     43  28  56 SW9       29.69R


$$




USA.gov is the U.S. government's official web portal to all federal, state and local government web resources and services.